Theta_e
310 313 317 320 328 331 333 333 333 333 336 342 343 345 346 349 351 359 355 355 356 356 349 342 337 334 332 336 341 340 338 338 337 336 331 325 324 325 325 329 333 331 327 325 322 322 322 323 325
317 313 316 323 326 333 334 332 333 333 338 335 337 344 345 345 349 355 355 356 357 355 345 338 336 332 329 333 338 338 338 338 337 336 328 324 323 323 323 323 323 322 323 323 323 324 324 327 332
310 315 316 321 324 329 333 332 332 332 336 335 336 340 342 345 350 352 354 356 357 353 343 338 334 329 326 330 335 335 336 336 335 330 324 324 323 323 323 323 323 323 324 325 326 327 328 330 336
313 314 316 319 320 324 329 332 332 331 334 336 337 340 346 352 352 353 347 356 355 351 346 337 332 328 325 327 328 327 327 329 328 325 324 324 324 324 325 324 324 325 327 329 330 330 330 331 332
313 315 318 318 319 321 325 328 329 331 331 334 339 341 346 352 356 353 349 355 354 350 347 337 331 330 325 323 324 324 324 324 323 322 324 324 324 324 327 327 328 329 330 331 331 331 331 331 331
315 316 319 319 320 320 323 324 327 330 330 335 340 342 347 354 356 356 355 355 353 350 348 338 331 331 326 321 322 320 320 321 321 322 323 325 325 324 324 327 329 330 330 329 329 330 330 331 332
317 318 318 320 320 320 321 322 325 328 331 331 332 336 349 351 355 357 355 354 353 350 347 338 333 332 328 320 320 320 320 321 321 322 324 325 323 322 323 323 323 324 324 324 324 324 324 323 323
316 319 319 319 320 320 321 321 323 326 329 329 329 331 334 351 356 357 354 354 354 352 348 342 337 333 329 321 320 321 322 322 322 324 325 325 324 323 323 322 322 322 322 321 321 322 322 322 322
314 318 319 320 319 320 319 321 321 323 326 328 328 328 342 355 355 355 354 353 354 352 349 345 342 341 339 334 320 322 324 325 325 326 326 324 335 324 322 326 322 322 322 322 322 322 322 322 322
316 319 320 321 320 319 319 318 319 319 321 324 327 334 347 354 354 354 353 352 352 351 350 347 345 344 342 340 326 327 324 331 335 337 325 337 332 335 335 327 324 324 323 323 327 329 331 334 340
318 319 320 320 317 317 318 318 320 320 321 321 324 327 346 351 355 354 352 352 351 350 350 348 348 344 344 343 340 340 338 339 335 323 325 333 335 331 335 337 335 335 333 339 342 343 343 343 343
319 318 317 318 316 317 318 318 319 319 321 323 328 335 349 350 352 354 353 352 351 351 351 350 349 342 344 345 344 343 342 341 339 334 325 324 327 329 328 336 336 338 342 341 345 343 344 344 344
317 319 317 315 315 316 317 317 319 319 319 323 321 330 351 352 352 352 353 352 351 352 351 351 350 344 342 343 345 345 345 341 342 337 333 337 335 331 331 333 331 330 343 345 344 346 346 346 345
315 315 318 317 317 316 317 318 317 318 318 319 319 321 334 352 353 353 353 353 352 352 352 351 351 344 342 340 343 344 345 345 344 345 341 327 324 323 330 330 333 330 338 343 346 349 348 348 348
314 316 317 318 318 318 317 318 319 318 319 319 319 320 325 334 351 353 354 354 353 351 348 348 351 344 344 345 341 342 344 346 347 345 327 324 322 327 337 337 335 337 341 345 351 349 349 347 347
314 315 317 317 317 318 318 320 320 318 318 319 319 319 320 341 345 352 354 354 353 351 349 349 349 346 343 348 346 347 348 347 345 341 340 327 337 343 344 346 346 346 346 345 344 344 345 343 343
315 315 314 315 317 318 319 320 320 319 319 319 319 319 320 333 347 351 354 354 353 351 348 341 336 336 337 343 345 347 341 341 341 340 343 342 344 344 345 344 343 343 344 343 339 337 340 342 342
315 314 315 314 315 317 319 319 320 319 319 319 319 319 320 327 345 352 352 352 351 347 340 335 335 333 341 344 345 343 339 339 344 347 346 345 345 345 346 345 344 345 335 332 332 333 333 340 341
315 316 316 315 317 316 318 318 320 320 319 320 320 320 320 322 336 348 350 350 349 347 337 334 329 330 338 343 338 339 340 346 343 345 347 347 347 346 345 343 341 335 333 333 332 332 338 340 340
314 315 315 315 316 318 318 318 320 322 321 320 320 320 321 325 333 346 349 347 346 344 336 333 330 328 336 342 345 348 349 347 342 344 345 345 342 342 340 333 332 332 335 333 335 339 340 338 339
314 314 314 314 315 318 319 321 320 320 321 321 320 320 323 329 339 345 349 346 346 346 342 334 331 328 334 343 344 344 343 344 344 344 340 340 340 334 332 332 333 333 336 335 337 337 332 333 330
312 312 312 313 314 316 318 320 320 320 322 322 321 321 327 332 340 344 348 347 346 345 344 336 333 330 330 332 345 345 347 347 342 342 337 333 333 334 337 337 337 337 337 337 333 329 324 318 320
312 311 312 313 314 317 320 322 321 320 322 323 323 321 331 336 339 345 348 348 348 346 345 342 335 335 336 338 345 344 345 344 339 338 334 333 333 337 336 333 333 332 331 330 327 320 314 311 309
312 311 313 315 316 317 318 321 321 322 322 324 323 321 337 339 342 347 349 349 346 344 343 340 336 339 343 345 345 344 341 340 335 333 333 333 337 337 332 332 329 328 327 320 313 310 308 307 308
312 312 316 316 318 318 317 319 322 321 322 324 323 321 337 341 345 349 350 348 347 345 344 343 343 344 343 345 341 341 338 336 330 331 333 336 337 335 332 329 327 323 313 310 308 307 307 308 308
313 315 317 315 317 317 318 318 321 322 323 322 321 322 338 343 346 350 349 348 346 345 345 345 344 343 336 338 341 335 335 330 329 336 337 336 333 330 327 325 317 310 309 307 307 308 308 307 310
313 314 315 318 317 316 316 320 319 321 323 323 322 325 339 345 349 350 348 347 346 345 344 342 336 336 339 340 335 331 330 333 333 333 332 330 328 325 320 310 309 307 306 307 308 308 309 312 314
313 313 315 316 315 315 316 317 319 321 323 323 323 330 343 349 349 348 347 345 344 342 340 334 335 340 338 337 336 336 335 332 331 330 328 327 322 312 309 307 306 307 307 307 309 312 311 314 315
313 315 313 314 314 316 316 318 319 322 323 323 324 333 347 347 346 347 344 341 340 339 338 339 340 337 337 337 337 332 331 330 329 326 323 313 310 308 306 306 307 307 306 307 308 310 314 314 313
313 314 314 316 315 317 322 320 319 322 323 323 327 339 347 345 345 344 340 335 336 337 336 340 336 335 335 335 332 331 329 327 324 314 311 308 306 306 307 308 308 309 311 312 312 313 313 314 315
Wind_Speed
10 10 7 6 7 8 17 17 15 6 7 3 1 7 2 4 4 4 7 12 22 25 29 27 24 21 19 21 25 23 21 18 15 13 12 12 12 13 13 13 12 10 9 8 7 6 6 6 5
7 8 9 10 9 15 16 17 14 14 3 2 2 5 7 0 1 7 15 14 23 26 30 28 24 21 20 22 24 22 20 17 15 13 12 12 12 12 12 11 10 9 9 8 6 6 5 5 4
9 11 12 6 15 20 17 16 16 10 7 5 2 4 2 3 3 9 8 22 26 26 29 28 24 21 21 23 23 21 19 17 14 13 13 12 11 11 11 10 10 9 8 7 6 5 4 3 2
9 9 10 13 20 24 25 12 14 13 12 6 6 5 5 5 5 6 13 25 27 27 26 28 24 21 20 21 21 19 18 16 14 14 13 12 11 10 10 10 9 8 7 5 4 3 1 2 3
13 12 11 18 25 22 17 19 11 14 16 11 9 6 2 6 7 10 16 26 28 27 24 27 24 20 18 19 19 18 18 17 16 15 13 11 10 10 9 9 8 7 5 3 2 2 3 5 6
15 15 12 21 24 23 15 22 18 15 18 10 9 8 3 6 9 15 21 26 27 27 26 28 25 20 18 18 18 18 18 17 16 15 12 10 8 8 8 7 7 6 4 4 4 5 7 8 10
20 13 21 22 22 21 20 21 21 19 18 16 5 6 5 8 11 18 23 27 27 26 27 29 25 21 18 17 18 17 16 16 15 13 11 9 7 7 6 6 6 5 5 5 6 7 9 10 12
21 13 24 24 19 22 19 25 21 23 20 12 6 7 7 11 16 19 23 25 26 25 25 28 26 22 20 19 18 17 15 14 13 11 10 8 7 6 5 5 5 5 5 6 7 8 9 10 11
16 13 19 27 22 19 14 19 23 20 20 14 14 8 2 15 19 22 25 26 26 25 25 25 25 20 18 18 20 18 16 14 12 11 9 7 5 5 4 4 3 4 5 6 7 8 9 11 11
15 16 24 17 20 16 16 19 24 20 23 22 24 7 9 15 20 24 28 31 30 28 26 25 25 23 20 16 20 17 17 13 11 9 8 6 7 5 4 2 3 5 6 7 8 9 11 12 10
17 21 18 17 13 17 16 15 16 17 19 26 24 21 15 16 19 23 26 28 30 29 27 25 24 25 20 17 17 15 13 12 11 10 9 9 5 4 1 2 4 6 8 7 10 10 10 12 12
17 17 23 12 20 15 17 16 16 20 15 11 4 4 16 18 20 22 26 29 29 29 28 27 25 28 23 18 16 15 13 11 9 8 7 6 4 6 5 3 4 7 7 9 10 10 13 14 15
16 20 17 21 11 16 14 15 18 20 21 9 2 1 14 16 18 19 22 26 27 28 27 26 25 27 27 22 17 15 13 11 9 6 5 4 3 5 4 5 5 6 7 8 11 12 14 15 15
9 22 17 23 20 19 17 20 22 20 22 15 9 9 11 17 18 19 24 28 29 27 27 26 24 27 26 22 19 16 12 10 7 5 4 4 3 4 4 4 4 6 7 10 12 13 16 17 18
10 12 16 21 19 17 16 21 28 26 16 14 10 7 5 15 17 21 24 27 27 26 28 26 23 25 24 21 20 14 11 8 6 5 6 5 3 1 2 0 0 4 7 11 13 16 16 18 20
15 15 16 18 21 21 18 23 22 28 26 24 19 12 8 8 15 19 23 26 25 24 24 24 21 21 24 16 16 11 9 7 5 5 4 5 7 6 4 1 3 4 5 10 16 21 25 23 25
11 13 20 18 18 21 21 12 24 20 25 22 23 19 13 10 14 18 22 24 26 24 23 23 21 21 21 18 15 12 11 8 7 6 6 10 10 8 7 8 6 6 7 8 19 24 26 30 31
9 13 7 16 16 20 23 23 16 11 21 24 19 20 17 13 14 18 21 22 23 22 23 22 19 19 20 17 14 12 11 10 9 11 10 9 9 10 10 12 10 5 6 16 20 23 23 31 29
6 7 8 8 2 11 19 22 21 25 11 16 19 17 17 19 15 16 20 21 21 21 22 20 19 20 20 17 15 14 13 12 13 11 7 6 9 12 13 13 10 14 23 22 19 23 26 30 18
10 11 10 9 13 10 13 19 19 19 22 22 17 18 18 19 19 19 21 20 21 22 22 21 20 21 19 17 15 16 17 16 13 11 8 8 9 13 15 8 10 12 20 19 11 23 21 14 11
11 11 7 9 4 9 12 16 18 22 23 26 22 17 18 24 24 22 23 22 21 20 21 21 21 22 19 17 17 17 14 12 11 9 9 15 15 14 12 18 19 16 12 10 11 12 10 10 9
12 7 10 10 9 12 15 7 24 22 23 21 26 20 21 27 24 24 26 23 22 22 19 20 21 21 19 18 16 15 13 11 10 9 12 7 11 3 5 1 0 2 2 5 5 9 11 11 10
9 4 8 10 10 12 11 7 14 24 22 23 22 25 23 27 25 26 27 25 22 23 23 22 22 19 16 16 15 14 12 9 12 12 10 11 3 6 6 7 8 7 7 6 7 8 11 12 10
4 8 9 9 9 12 16 14 12 18 27 25 25 28 26 27 26 27 28 26 22 24 26 23 21 18 16 15 13 13 12 12 12 11 8 6 2 3 6 7 7 6 5 4 7 10 10 9 8
12 10 7 7 8 12 18 12 19 18 24 26 26 31 30 29 29 31 32 28 26 26 23 23 20 19 16 13 12 11 12 12 10 10 7 6 5 2 3 4 4 5 6 7 7 7 6 6 7
16 13 6 8 12 13 8 13 12 19 13 30 31 31 30 31 33 33 32 31 29 27 24 23 23 21 20 17 15 15 14 13 10 7 7 5 3 2 1 2 3 4 5 5 4 4 6 7 7
13 16 11 9 16 9 14 17 13 18 18 18 29 32 32 31 31 32 32 32 30 28 25 24 26 25 22 22 21 18 14 14 12 11 9 6 4 2 1 2 3 4 4 3 5 4 5 7 7
13 12 10 8 8 14 13 20 12 20 16 22 27 29 35 35 34 34 34 33 29 27 26 29 27 27 25 22 20 17 17 15 13 11 8 6 4 3 1 1 3 4 5 5 7 5 6 7 6
10 12 13 12 13 11 16 15 17 14 19 24 25 34 38 38 36 36 34 34 31 30 28 29 28 26 24 23 22 21 17 14 12 9 8 6 4 2 2 3 5 5 5 5 6 6 6 7 9
18 19 20 10 16 15 15 11 18 17 16 25 28 36 41 41 40 40 41 35 32 32 30 30 26 25 24 24 22 18 15 13 12 10 8 5 3 3 5 6 6 5 4 5 6 7 7 8 8
Wind_Direction
223 224 209 213 232 233 240 231 246 221 208 122 229 218 245 333 353 15 142 160 163 163 170 165 166 166 168 171 173 174 170 165 161 159 158 156 160 161 163 163 164 167 165 158 154 150 145 140 131
222 200 194 225 238 222 227 226 215 232 137 164 201 219 232 288 72 122 139 157 159 164 168 167 168 169 171 173 175 173 175 173 171 167 165 160 160 163 167 165 168 171 165 158 151 146 145 144 134
194 188 212 224 229 236 230 201 227 208 183 231 246 226 279 119 133 152 168 159 159 163 166 170 168 170 171 175 176 177 179 181 180 174 169 164 163 164 164 165 166 166 159 146 143 141 152 147 152
181 192 240 231 226 226 241 234 224 205 203 225 255 247 140 137 143 167 152 157 161 162 167 170 167 169 169 173 179 182 185 185 182 176 172 169 164 160 161 161 161 159 155 154 160 172 179 235 268
190 213 226 224 234 238 225 243 241 226 230 226 216 236 145 149 140 154 158 160 162 163 165 169 167 170 169 172 180 182 185 182 179 178 178 174 169 166 167 165 165 168 179 190 216 258 271 282 288
201 222 227 224 226 227 210 236 232 234 222 196 202 244 149 150 154 160 161 163 164 162 165 170 168 169 170 172 177 178 178 177 178 179 179 177 173 175 182 186 190 202 218 248 276 292 294 288 286
236 212 232 236 227 218 220 227 227 231 226 216 193 231 116 162 163 159 161 162 165 164 162 169 169 170 170 170 172 173 174 178 180 179 176 176 180 187 198 208 219 229 247 266 278 280 279 281 282
228 250 239 235 232 238 209 222 224 228 225 220 221 236 202 177 159 157 159 162 167 168 168 170 172 170 171 168 168 173 174 178 179 180 180 182 192 202 213 225 237 247 262 269 273 278 281 283 287
227 230 231 226 220 232 219 220 219 225 236 234 220 250 122 153 152 157 161 165 170 173 174 170 168 170 164 168 170 172 172 176 178 185 187 185 178 203 214 230 264 274 275 276 280 286 291 296 300
219 227 233 237 223 239 217 224 223 216 226 229 231 195 165 158 156 165 168 169 174 175 176 176 170 169 166 162 171 170 176 175 170 179 191 175 197 193 190 256 284 292 295 300 303 306 306 317 311
230 243 241 240 253 235 243 213 220 220 227 223 231 212 185 179 170 175 176 177 176 176 177 178 174 173 167 171 161 165 167 175 186 198 203 197 199 237 242 286 328 315 310 324 313 314 315 299 304
241 243 258 237 227 240 235 224 215 230 221 192 120 302 183 191 187 184 184 180 178 179 179 181 179 185 173 175 169 172 170 172 178 196 216 231 230 253 226 262 289 320 312 305 316 311 304 311 307
231 250 234 241 229 239 242 235 232 221 223 188 223 144 191 198 196 194 191 185 182 182 183 180 182 187 191 184 174 174 175 178 183 199 220 210 208 245 259 265 287 292 314 326 322 320 312 310 311
219 235 232 236 235 238 242 236 225 232 219 233 238 218 204 202 200 194 191 188 187 183 185 178 182 192 193 186 186 187 179 190 179 183 213 256 244 251 257 294 295 297 305 317 323 314 319 316 314
241 234 231 241 234 234 233 242 237 230 193 210 243 225 254 207 200 200 194 189 187 184 186 181 179 194 193 191 194 185 189 182 179 188 223 213 195 198 139 168 335 309 318 332 328 323 323 315 319
225 228 237 219 227 231 234 245 224 231 235 237 237 235 214 196 198 198 191 186 184 181 178 178 174 186 193 182 181 177 181 172 170 177 181 178 166 167 166 198 225 267 316 333 322 320 320 319 321
209 228 219 229 208 223 217 241 245 241 230 240 235 229 216 199 195 194 189 184 179 178 174 180 193 193 188 188 180 171 185 155 163 158 160 177 182 195 208 238 258 302 324 338 337 325 320 316 315
210 227 220 225 206 221 229 227 252 221 242 237 226 223 214 195 193 192 189 184 180 179 180 183 179 176 169 169 162 157 157 150 156 180 187 198 215 229 247 259 248 255 319 332 344 301 290 312 311
298 277 264 222 175 256 232 241 219 237 224 223 223 215 211 197 192 196 184 181 176 171 175 177 176 171 167 162 158 159 155 161 179 189 205 236 254 260 254 252 273 301 310 295 274 276 288 299 311
238 248 244 249 251 245 255 234 234 236 234 237 219 212 205 187 188 186 180 176 173 171 177 181 178 171 161 159 155 169 163 173 189 201 217 238 226 229 243 254 260 298 327 298 268 282 291 302 315
235 252 253 266 216 249 272 253 229 233 232 230 229 224 209 189 183 185 179 171 163 162 171 174 173 175 165 163 163 183 187 202 204 214 224 233 241 268 274 271 282 291 291 300 306 289 305 314 336
257 220 259 259 252 242 198 251 205 222 221 222 212 211 201 188 188 185 174 165 169 157 158 172 173 175 182 175 170 180 179 180 189 175 221 245 266 310 20 326 34 116 53 1 316 303 306 324 336
269 272 245 247 250 266 209 244 253 192 212 215 206 201 193 187 186 181 173 166 158 158 168 169 171 166 175 184 185 193 189 190 199 205 215 233 246 33 65 86 57 42 11 336 294 308 319 326 325
267 242 243 240 236 237 233 224 225 186 201 207 196 193 182 185 183 174 166 160 161 162 169 164 166 169 177 180 187 184 182 184 219 208 185 155 100 88 74 22 14 11 351 330 332 324 321 321 337
220 206 197 208 205 239 194 222 252 192 200 205 193 186 180 179 177 164 156 157 156 158 157 154 162 168 169 165 171 172 188 196 170 137 149 121 120 116 336 330 351 352 344 336 331 327 340 6 22
208 208 251 199 210 226 203 213 227 239 220 214 195 185 176 177 172 162 157 154 157 150 148 153 165 178 172 168 172 162 158 158 153 148 135 161 176 219 249 320 326 330 334 344 344 20 32 37 48
202 224 249 303 278 279 185 236 247 237 210 220 190 182 175 171 155 159 155 154 153 148 150 160 168 163 163 169 164 161 164 168 173 174 174 169 174 152 251 324 339 348 2 27 68 58 65 61 50
248 201 203 222 259 221 215 223 225 200 210 205 183 177 167 163 157 159 154 149 149 147 149 157 161 159 158 161 165 168 160 159 162 163 159 158 164 198 231 358 20 42 65 80 86 64 61 54 48
189 225 219 255 246 260 228 220 220 210 194 195 178 176 160 158 159 153 148 147 147 146 149 151 154 153 150 154 158 158 159 160 161 155 161 170 180 165 66 52 67 70 74 86 92 84 65 56 50
220 214 210 225 208 237 274 276 187 209 188 186 177 174 162 162 159 153 150 139 143 146 143 148 144 145 149 152 157 159 160 160 157 161 168 172 152 116 93 91 83 76 79 91 93 90 77 68 51